TURKSAT 4B

Last updated on Thu Jul 03 2025 00:02:47 GMT+0000 (Coordinated Universal Time)

1 40984U 15060A 25183.43370273 .00000121 00000+0 00000+0 0 9997 2 40984 0.0184 28.6819 0002132 74.9276 23.2175 1.00275286 35590
UTC large
Height (km)
Speed (km/s)
/
Latitude / Longitude
Inclination (degrees)
Orbital Period (minutes)
Azimuth
Elevation
Range (km)
Doppler Factor

Next 0 passes for location: London (51.5072 / 0.1276)

Sorry there are no passes over London.